Regional Weather Roundup
Issued by NWS Charleston, SC

Current Version | Previous Version | Graphics & Text | Print | Product List | Glossary On
Versions: 1 2 3 4 5 6 7 8 9 10 11 12 13 14 15 16 17 18 19 20 21 22 23 24 25 26 27 28 29 30 31 32 33 34 35 36 37 38 39 40 41 42 43 44 45 46 47 48 49 50
915 ASUS42 KCHS 260328 RWRCHS REGIONAL WEATHER ROUNDUP NATIONAL WEATHER SERVICE CHARLESTON SC 1100 PM EDT SUN SEP 25 2016 NOTE: "FAIR" INDICATES FEW OR NO CLOUDS BELOW 12,000 FEET WITH NO SIGNIFICANT WEATHER AND/OR OBSTRUCTIONS TO VISIBILITY. NOT ALL STATIONS ARE QUALITY CONTROLLED. USE DATA WITH CAUTION... ESPECIALLY DEWPOINT OBSERVATIONS. SCZ027-030-031-034>040-042>050-260400- ...SOUTHEAST SOUTH CAROLINA... CITY SKY/WX TMP DP RH WIND PRES REMARKS N CHARLESTON PTCLDY 75 71 87 E5 30.08S WATERFRONT PRK N/A 80 75 84 E7 30.06R MOUNT PLEASANT FAIR 77 73 88 CALM 30.08S JOHNS ISLAND FAIR 79 75 89 NE8 30.07F PINOPOLIS N/A 75 73 94 VRB3 30.02S MONCKS CORNER FAIR 73 70 88 E5 30.08F SUMMERVILLE FAIR 73 73 100 CALM 30.09F BEAUFORT MCAS CLEAR 77 74 90 NE6 30.07S BEAUFORT ARPT MOCLDY 77 73 88 NE5 30.05F HILTON HEAD IS PTCLDY 81 73 78 E8G16 30.06S WALTERBORO PTCLDY 75 N/A N/A E5 30.08F ALLENDALE FAIR 73 72 94 CALM 30.07F ...SOUTHERN MIDLANDS AND PEE DEE... CITY SKY/WX TMP DP RH WIND PRES REMARKS GEORGETOWN FAIR 77 72 83 E7 30.10S KINGSTREE FAIR 72 70 94 CALM 30.09F FOG ORANGEBURG CLEAR 75 71 87 SE3 30.09S BARNWELL NOT AVBL AIKEN FAIR 72 66 83 SE3 30.12S MANNING FAIR 72 68 88 CALM 30.09F COLUMBIA CLEAR 78 69 73 CALM 30.08S SUMTER PTCLDY 75 71 87 SE5 30.08R FLORENCE CLOUDY 75 72 90 SE7 30.11S MYRTLE BEACH MOCLDY 79 64 61 E9 30.12S N MYRTLE BEACH MOCLDY 75 68 78 E7 30.10S $$ GAZ063-065-086>088-099>101-113>116-118-119-134>141-150-260400- ...SOUTHEAST GEORGIA... CITY SKY/WX TMP DP RH WIND PRES REMARKS SAVANNAH ARPT PTCLDY 76 73 91 NE6 30.06F HUNTER AAF PTCLDY 78 78 100 NE2 30.02F FORT STEWART PTCLDY 73 70 91 CALM 30.03F STATESBORO CLEAR 73 72 95 CALM 30.06F SYLVANIA NOT AVBL CLAXTON FAIR 70 70 100 CALM 30.05F ...CSRA...CENTRAL AND FAR SOUTHEAST GEORGIA... CITY SKY/WX TMP DP RH WIND PRES REMARKS THOMSON CLEAR 76 70 80 E3 30.11F AUGUSTA-BUSH CLEAR 71 69 93 CALM 30.07S AUGUSTA-DANIEL CLEAR 78 67 68 SE3 30.09S SWAINSBORO FAIR 75 68 78 E5 30.07S VIDALIA PTCLDY 73 72 94 CALM 30.07S EASTMAN FAIR 76 60 57 S5 30.09R HAZLEHURST MOCLDY 77 73 85 NW5 30.06R ALMA CLOUDY 74 71 91 CALM 30.06S WAYCROSS MOCLDY 78 75 92 CALM 30.07R JESUP FAIR 73 73 100 CALM 30.06R BAXLEY FAIR 75 75 100 CALM 30.06S BRUNSWICK CLOUDY 77 75 94 CALM 30.04F SAINT SIMONS MOCLDY 81 73 76 E12 30.03F $$ SCZ027-028-034-036>038-045-046-048>050-GAZ119-141-260400- ...LAKE AND SUPPLEMENTAL COASTAL OBSERVATIONS... STATION/POSITION TIME TEMP WIND PRES WAVE SWELL AIR SEA DIR/SP/G HT/PER HT/PER/DIR (UTC) (F) (DEG/KT/KT) (MB) (FT/S) (FT/S/D) WINYAH BAY 0245 79 90/ 11 1018.0S LAKE MURRAY 0250 80 160/ 9/ 11 1017.9S ACE BASIN NERRS 0245 76 CALM 1019.0S FORT PULASKI 0300 81 81 60/ 12/ 15 1018.0 SAPELO ISLAND 0300 80 70/ 7 1017.0 $$ ANZ835-935-AMZ111-154-330-350-352-354-370-450-454-472-260400- ...C-MAN AND BUOY OBSERVATIONS... STATION/POSITION TIME TEMP WIND PRES WAVE SWELL AIR SEA DIR/SP/G HT/PER HT/PER/DIR (UTC) (F) (DEG/KT/KT) (MB) (FT/S) (FT/S/D) BUOY 41004 0250 81 82 60/ 17/ 21 1017.2F 5/ 9 2/100/ 9 BUOY 41008 0250 82 82 70/ 16/ 19 1016.5F 4/ 5 2/100/11 FOLLY BEACH CMAN 0300 80 70/ 15/ 17 1018.4F CAPERS NEARSHORE 0308 80 81 80/ 16/ 21 1018.1F FRIPP NEARSHORE 0308 80 81 90/ 16/ 19 1017.7F STATION/POSITION TIME TEMP WIND PRES WAVE SWELL AIR SEA DIR/SP/G HT/PER HT/PER/DIR (UTC) (F) (DEG/KT/KT) (MB) (FT/S) (FT/S/D) 5E ST. MARYS GA 0301 83 N/A 4/11 2/100/11 FRYING PAN BUOY 0300 60/ 16/ 19 1019.0 BUOY 41025 0250 74 85 40/ 14/ 17 1020.1F 4/ 8 3/ 40/ 8 CAPE LOOKOUT NC 0300 74 60/ 15/ 17 1020.2F BUOY 41002 0250 82 83 70/ 12/ 14 1017.7S 3/ 9 3/ 90/ 9 BUOY 41010 NOT AVBL ST AUGUSTINE FL 0300 81 84 30/ 8/ 8 1017.2F $$

USA.gov is the U.S. government's official web portal to all federal, state and local government web resources and services.